Time,TemperatureF,DewpointF,PressureIn,WindDirection,WindDirectionDegrees,WindSpeedMPH,WindSpeedGustMPH,Humidity,HourlyPrecipIn,Conditions,Clouds,dailyrainin,SoftwareType,DateUTC
2013-01-09 00:02:00,27.0,23.0,29.37,NNW,337,2.0,5.0,82,-99.99,,,-99.99,,2013-01-09 07:02:00,
2013-01-09 00:12:00,27.0,23.0,29.37,NNW,337,2.0,5.0,82,-99.99,,,-99.99,,2013-01-09 07:12:00,
2013-01-09 00:22:00,27.0,23.0,29.37,NNW,337,2.0,5.0,82,-99.99,,,-99.99,,2013-01-09 07:22:00,
2013-01-09 00:32:00,27.0,23.0,29.37,NNW,337,2.0,5.0,82,-99.99,,,-99.99,,2013-01-09 07:32:00,
2013-01-09 00:41:00,42.0,30.0,29.35,SSE,157,7.0,12.0,64,-99.99,,,-99.99,,2013-01-09 07:41:00,
2013-01-09 01:02:00,42.0,30.0,29.35,SSE,157,7.0,12.0,64,-99.99,,,-99.99,,2013-01-09 08:02:00,
2013-01-09 01:12:00,42.0,30.0,29.35,SSE,157,7.0,12.0,64,-99.99,,,-99.99,,2013-01-09 08:12:00,
2013-01-09 01:22:00,42.0,30.0,29.35,SSE,157,7.0,12.0,64,-99.99,,,-99.99,,2013-01-09 08:22:00,
2013-01-09 01:32:00,42.0,30.0,29.35,SSE,157,7.0,12.0,64,-99.99,,,-99.99,,2013-01-09 08:32:00,
2013-01-09 01:41:00,45.0,29.0,29.35,West,270,12.0,21.0,53,-99.99,,,-99.99,,2013-01-09 08:41:00,
2013-01-09 02:02:00,45.0,29.0,29.35,West,270,12.0,21.0,53,-99.99,,,-99.99,,2013-01-09 09:02:00,
2013-01-09 02:12:00,45.0,29.0,29.35,West,270,12.0,21.0,53,-99.99,,,-99.99,,2013-01-09 09:12:00,
2013-01-09 02:22:00,45.0,29.0,29.35,West,270,12.0,21.0,53,-99.99,,,-99.99,,2013-01-09 09:22:00,
2013-01-09 02:32:00,45.0,29.0,29.35,West,270,12.0,21.0,53,-99.99,,,-99.99,,2013-01-09 09:32:00,
2013-01-09 02:41:00,48.0,28.0,29.32,NW,315,10.0,13.0,47,-99.99,,,-99.99,,2013-01-09 09:41:00,
2013-01-09 03:02:00,48.0,28.0,29.32,NW,315,10.0,13.0,47,-99.99,,,-99.99,,2013-01-09 10:02:00,
2013-01-09 03:11:00,48.0,28.0,29.32,NW,315,10.0,13.0,47,-99.99,,,-99.99,,2013-01-09 10:11:00,
2013-01-09 03:22:00,48.0,28.0,29.32,NW,315,10.0,13.0,47,-99.99,,,-99.99,,2013-01-09 10:22:00,
2013-01-09 03:32:00,48.0,28.0,29.32,NW,315,10.0,13.0,47,-99.99,,,-99.99,,2013-01-09 10:32:00,
2013-01-09 03:41:00,46.0,29.0,29.29,SW,225,5.0,7.0,51,-99.99,,,-99.99,,2013-01-09 10:41:00,
2013-01-09 04:02:00,46.0,29.0,29.29,SW,225,5.0,7.0,51,-99.99,,,-99.99,,2013-01-09 11:02:00,
2013-01-09 04:12:00,46.0,29.0,29.29,SW,225,5.0,7.0,51,-99.99,,,-99.99,,2013-01-09 11:12:00,
2013-01-09 04:22:00,46.0,29.0,29.29,SW,225,5.0,7.0,51,-99.99,,,-99.99,,2013-01-09 11:22:00,
2013-01-09 04:32:00,46.0,29.0,29.29,SW,225,5.0,7.0,51,-99.99,,,-99.99,,2013-01-09 11:32:00,
2013-01-09 04:41:00,47.0,29.0,29.23,West,270,26.0,35.0,50,-99.99,,,-99.99,,2013-01-09 11:41:00,
2013-01-09 05:03:00,47.0,29.0,29.23,West,270,26.0,35.0,50,-99.99,,,-99.99,,2013-01-09 12:03:00,
2013-01-09 05:12:00,47.0,29.0,29.23,West,270,26.0,35.0,50,-99.99,,,-99.99,,2013-01-09 12:12:00,
2013-01-09 05:22:00,47.0,29.0,29.23,West,270,26.0,35.0,50,-99.99,,,-99.99,,2013-01-09 12:22:00,
2013-01-09 05:32:00,47.0,29.0,29.23,West,270,26.0,35.0,50,-99.99,,,-99.99,,2013-01-09 12:32:00,
2013-01-09 05:41:00,47.0,25.0,29.29,SSW,202,15.0,22.0,42,-99.99,,,-99.99,,2013-01-09 12:41:00,
2013-01-09 06:02:00,47.0,25.0,29.29,SSW,202,15.0,22.0,42,-99.99,,,-99.99,,2013-01-09 13:02:00,
2013-01-09 06:12:00,47.0,25.0,29.29,SSW,202,15.0,22.0,42,-99.99,,,-99.99,,2013-01-09 13:12:00,
2013-01-09 06:22:00,47.0,25.0,29.29,SSW,202,15.0,22.0,42,-99.99,,,-99.99,,2013-01-09 13:22:00,
2013-01-09 06:32:00,47.0,25.0,29.29,SSW,202,15.0,22.0,42,-99.99,,,-99.99,,2013-01-09 13:32:00,
2013-01-09 06:41:00,47.0,25.0,29.30,SW,225,15.0,22.0,42,-99.99,,,-99.99,,2013-01-09 13:41:00,
2013-01-09 07:02:00,47.0,25.0,29.30,SW,225,15.0,22.0,42,-99.99,,,-99.99,,2013-01-09 14:02:00,
2013-01-09 07:12:00,47.0,25.0,29.30,SW,225,15.0,22.0,42,-99.99,,,-99.99,,2013-01-09 14:12:00,
2013-01-09 07:22:00,47.0,25.0,29.30,SW,225,15.0,22.0,42,-99.99,,,-99.99,,2013-01-09 14:22:00,
2013-01-09 07:32:00,47.0,25.0,29.30,SW,225,15.0,22.0,42,-99.99,,,-99.99,,2013-01-09 14:32:00,
2013-01-09 07:41:00,44.0,28.0,29.33,SW,225,11.0,18.0,53,-99.99,,,-99.99,,2013-01-09 14:41:00,
2013-01-09 08:03:00,44.0,28.0,29.33,SW,225,11.0,18.0,53,-99.99,,,-99.99,,2013-01-09 15:03:00,
2013-01-09 08:12:00,44.0,28.0,29.33,SW,225,11.0,18.0,53,-99.99,,,-99.99,,2013-01-09 15:12:00,
2013-01-09 08:22:00,44.0,28.0,29.33,SW,225,11.0,18.0,53,-99.99,,,-99.99,,2013-01-09 15:22:00,
2013-01-09 08:33:00,44.0,28.0,29.33,SW,225,11.0,18.0,53,-99.99,,,-99.99,,2013-01-09 15:33:00,
2013-01-09 08:41:00,44.0,28.0,29.33,SW,225,6.0,9.0,53,-99.99,,,-99.99,,2013-01-09 15:41:00,
2013-01-09 09:03:00,44.0,28.0,29.33,SW,225,6.0,9.0,53,-99.99,,,-99.99,,2013-01-09 16:03:00,
2013-01-09 09:12:00,44.0,28.0,29.33,SW,225,6.0,9.0,53,-99.99,,,-99.99,,2013-01-09 16:12:00,
2013-01-09 09:22:00,44.0,28.0,29.33,SW,225,6.0,9.0,53,-99.99,,,-99.99,,2013-01-09 16:22:00,
2013-01-09 09:33:00,44.0,28.0,29.33,SW,225,6.0,9.0,53,-99.99,,,-99.99,,2013-01-09 16:33:00,
2013-01-09 09:41:00,44.0,29.0,29.30,SW,225,11.0,15.0,56,-99.99,,,-99.99,,2013-01-09 16:41:00,
2013-01-09 10:02:00,44.0,29.0,29.30,SW,225,11.0,15.0,56,-99.99,,,-99.99,,2013-01-09 17:02:00,
2013-01-09 10:12:00,44.0,29.0,29.30,SW,225,11.0,15.0,56,-99.99,,,-99.99,,2013-01-09 17:12:00,
2013-01-09 10:22:00,44.0,29.0,29.30,SW,225,11.0,15.0,56,-99.99,,,-99.99,,2013-01-09 17:22:00,
2013-01-09 10:32:00,44.0,29.0,29.30,SW,225,11.0,15.0,56,-99.99,,,-99.99,,2013-01-09 17:32:00,
2013-01-09 10:41:00,48.0,30.0,29.28,SSW,202,11.0,15.0,50,-99.99,,,-99.99,,2013-01-09 17:41:00,
2013-01-09 11:03:00,48.0,30.0,29.28,SSW,202,11.0,15.0,50,-99.99,,,-99.99,,2013-01-09 18:03:00,
2013-01-09 11:12:00,48.0,30.0,29.28,SSW,202,11.0,15.0,50,-99.99,,,-99.99,,2013-01-09 18:12:00,
2013-01-09 11:23:00,48.0,30.0,29.28,SSW,202,11.0,15.0,50,-99.99,,,-99.99,,2013-01-09 18:23:00,
2013-01-09 11:32:00,48.0,30.0,29.28,SSW,202,11.0,15.0,50,-99.99,,,-99.99,,2013-01-09 18:32:00,
2013-01-09 11:41:00,48.0,32.0,29.22,SW,225,19.0,24.0,52,-99.99,,,-99.99,,2013-01-09 18:41:00,
2013-01-09 12:02:00,48.0,32.0,29.22,SW,225,19.0,24.0,52,-99.99,,,-99.99,,2013-01-09 19:02:00,
2013-01-09 12:12:00,48.0,32.0,29.22,SW,225,19.0,24.0,52,-99.99,,,-99.99,,2013-01-09 19:12:00,
2013-01-09 12:22:00,48.0,32.0,29.22,SW,225,19.0,24.0,52,-99.99,,,-99.99,,2013-01-09 19:22:00,
2013-01-09 12:33:00,48.0,32.0,29.22,SW,225,19.0,24.0,52,-99.99,,,-99.99,,2013-01-09 19:33:00,
2013-01-09 12:41:00,49.0,31.0,29.19,SSW,202,17.0,24.0,51,-99.99,,,-99.99,,2013-01-09 19:41:00,
2013-01-09 13:02:00,49.0,31.0,29.19,SSW,202,17.0,24.0,51,-99.99,,,-99.99,,2013-01-09 20:02:00,
2013-01-09 13:12:00,49.0,31.0,29.19,SSW,202,17.0,24.0,51,-99.99,,,-99.99,,2013-01-09 20:12:00,
2013-01-09 13:22:00,49.0,31.0,29.19,SSW,202,17.0,24.0,51,-99.99,,,-99.99,,2013-01-09 20:22:00,
2013-01-09 13:32:00,49.0,31.0,29.19,SSW,202,17.0,24.0,51,-99.99,,,-99.99,,2013-01-09 20:32:00,
2013-01-09 13:41:00,48.0,31.0,29.19,South,180,12.0,15.0,52,-99.99,,,-99.99,,2013-01-09 20:41:00,
2013-01-09 14:03:00,48.0,31.0,29.19,South,180,12.0,15.0,52,-99.99,,,-99.99,,2013-01-09 21:03:00,
2013-01-09 14:12:00,48.0,31.0,29.19,South,180,12.0,15.0,52,-99.99,,,-99.99,,2013-01-09 21:12:00,
2013-01-09 14:22:00,48.0,31.0,29.19,South,180,12.0,15.0,52,-99.99,,,-99.99,,2013-01-09 21:22:00,
2013-01-09 14:32:00,48.0,31.0,29.19,South,180,12.0,15.0,52,-99.99,,,-99.99,,2013-01-09 21:32:00,
2013-01-09 14:41:00,46.0,32.0,29.19,SSW,202,11.0,14.0,58,-99.99,,,-99.99,,2013-01-09 21:41:00,
2013-01-09 15:03:00,46.0,32.0,29.19,SSW,202,11.0,14.0,58,-99.99,,,-99.99,,2013-01-09 22:03:00,
2013-01-09 15:12:00,46.0,32.0,29.19,SSW,202,11.0,14.0,58,-99.99,,,-99.99,,2013-01-09 22:12:00,
2013-01-09 15:22:00,46.0,32.0,29.19,SSW,202,11.0,14.0,58,-99.99,,,-99.99,,2013-01-09 22:22:00,
2013-01-09 15:32:00,46.0,32.0,29.19,SSW,202,11.0,14.0,58,-99.99,,,-99.99,,2013-01-09 22:32:00,
2013-01-09 15:41:00,44.0,32.0,29.18,SSW,202,6.0,7.0,62,-99.99,,,-99.99,,2013-01-09 22:41:00,
2013-01-09 16:02:00,44.0,32.0,29.18,SSW,202,6.0,7.0,62,-99.99,,,-99.99,,2013-01-09 23:02:00,
2013-01-09 16:12:00,44.0,32.0,29.18,SSW,202,6.0,7.0,62,-99.99,,,-99.99,,2013-01-09 23:12:00,
2013-01-09 16:22:00,44.0,32.0,29.18,SSW,202,6.0,7.0,62,-99.99,,,-99.99,,2013-01-09 23:22:00,
2013-01-09 16:32:00,44.0,32.0,29.18,SSW,202,6.0,7.0,62,-99.99,,,-99.99,,2013-01-09 23:32:00,
2013-01-09 16:41:00,40.0,31.0,29.17,SSW,202,2.0,3.0,70,-99.99,,,-99.99,,2013-01-09 23:41:00,
2013-01-09 17:03:00,40.0,31.0,29.17,SSW,202,2.0,3.0,70,-99.99,,,-99.99,,2013-01-10 00:03:00,
2013-01-09 17:12:00,40.0,31.0,29.17,SSW,202,2.0,3.0,70,-99.99,,,-99.99,,2013-01-10 00:12:00,
2013-01-09 17:22:00,40.0,31.0,29.17,SSW,202,2.0,3.0,70,-99.99,,,-99.99,,2013-01-10 00:22:00,
2013-01-09 17:32:00,40.0,31.0,29.17,SSW,202,2.0,3.0,70,-99.99,,,-99.99,,2013-01-10 00:32:00,
2013-01-09 17:41:00,37.0,30.0,29.15,South,180,5.0,7.0,76,-99.99,,,-99.99,,2013-01-10 00:41:00,
2013-01-09 18:02:00,37.0,30.0,29.15,South,180,5.0,7.0,76,-99.99,,,-99.99,,2013-01-10 01:02:00,
2013-01-09 18:12:00,37.0,30.0,29.15,South,180,5.0,7.0,76,-99.99,,,-99.99,,2013-01-10 01:12:00,
2013-01-09 18:22:00,37.0,30.0,29.15,South,180,5.0,7.0,76,-99.99,,,-99.99,,2013-01-10 01:22:00,
2013-01-09 18:32:00,37.0,30.0,29.15,South,180,5.0,7.0,76,-99.99,,,-99.99,,2013-01-10 01:32:00,
2013-01-09 18:41:00,38.0,31.0,29.13,South,180,4.0,5.0,78,-99.99,,,-99.99,,2013-01-10 01:41:00,
2013-01-09 19:02:00,38.0,31.0,29.13,South,180,4.0,5.0,78,-99.99,,,-99.99,,2013-01-10 02:02:00,
2013-01-09 19:12:00,38.0,31.0,29.13,South,180,4.0,5.0,78,-99.99,,,-99.99,,2013-01-10 02:12:00,
2013-01-09 19:22:00,38.0,31.0,29.13,South,180,4.0,5.0,78,-99.99,,,-99.99,,2013-01-10 02:22:00,
2013-01-09 19:32:00,38.0,31.0,29.13,South,180,4.0,5.0,78,-99.99,,,-99.99,,2013-01-10 02:32:00,
2013-01-09 19:41:00,36.0,32.0,29.12,South,180,3.0,4.0,84,-99.99,,,-99.99,,2013-01-10 02:41:00,
2013-01-09 20:02:00,36.0,32.0,29.12,South,180,3.0,4.0,84,-99.99,,,-99.99,,2013-01-10 03:02:00,
2013-01-09 20:12:00,36.0,32.0,29.12,South,180,3.0,4.0,84,-99.99,,,-99.99,,2013-01-10 03:12:00,
2013-01-09 20:22:00,36.0,32.0,29.12,South,180,3.0,4.0,84,-99.99,,,-99.99,,2013-01-10 03:22:00,
2013-01-09 20:32:00,36.0,32.0,29.12,South,180,3.0,4.0,84,-99.99,,,-99.99,,2013-01-10 03:32:00,
2013-01-09 20:41:00,36.0,31.0,29.11,North,-999,0.0,0.0,84,-99.99,,,-99.99,,2013-01-10 03:41:00,
2013-01-09 21:02:00,36.0,31.0,29.11,North,-999,0.0,0.0,84,-99.99,,,-99.99,,2013-01-10 04:02:00,
2013-01-09 21:12:00,36.0,31.0,29.11,North,-999,0.0,0.0,84,-99.99,,,-99.99,,2013-01-10 04:12:00,
2013-01-09 21:22:00,36.0,31.0,29.11,North,-999,0.0,0.0,84,-99.99,,,-99.99,,2013-01-10 04:22:00,
2013-01-09 21:32:00,36.0,31.0,29.11,North,-999,0.0,0.0,84,-99.99,,,-99.99,,2013-01-10 04:32:00,
2013-01-09 21:41:00,36.0,31.0,29.10,SSW,202,3.0,6.0,84,-99.99,,,-99.99,,2013-01-10 04:41:00,
2013-01-09 22:03:00,36.0,31.0,29.10,SSW,202,3.0,6.0,84,-99.99,,,-99.99,,2013-01-10 05:03:00,
2013-01-09 22:12:00,36.0,31.0,29.10,SSW,202,3.0,6.0,84,-99.99,,,-99.99,,2013-01-10 05:12:00,
2013-01-09 22:22:00,36.0,31.0,29.10,SSW,202,3.0,6.0,84,-99.99,,,-99.99,,2013-01-10 05:22:00,
2013-01-09 22:32:00,36.0,31.0,29.10,SSW,202,3.0,6.0,84,-99.99,,,-99.99,,2013-01-10 05:32:00,
2013-01-09 22:41:00,34.0,29.0,29.09,North,-999,0.0,0.0,82,-99.99,,,-99.99,,2013-01-10 05:41:00,
2013-01-09 23:02:00,34.0,29.0,29.09,North,-999,0.0,0.0,82,-99.99,,,-99.99,,2013-01-10 06:02:00,
2013-01-09 23:11:00,34.0,29.0,29.09,North,-999,0.0,0.0,82,-99.99,,,-99.99,,2013-01-10 06:11:00,
2013-01-09 23:22:00,34.0,29.0,29.09,North,-999,0.0,0.0,82,-99.99,,,-99.99,,2013-01-10 06:22:00,
2013-01-09 23:32:00,34.0,29.0,29.09,North,-999,0.0,0.0,82,-99.99,,,-99.99,,2013-01-10 06:32:00,
2013-01-09 23:41:00,33.0,28.0,29.10,SSW,202,4.0,5.0,81,-99.99,,,-99.99,,2013-01-10 06:41:00,